Regional Weather Roundup
Issued by NWS

Home | Current Version | Previous Version | Graphics & Text | Print | Product List | Glossary On
Versions: 1 2 3 4 5 6 7 8 9 10 11 12 13 14 15 16 17 18 19 20 21 22 23 24 25 26 27 28 29 30 31 32 33 34 35 36 37 38 39 40 41 42 43 44 45 46 47 48 49 50
000
ASUS45 KABQ 161210
RWRNM
WEATHER ROUNDUP FOR NEW MEXICO
NATIONAL WEATHER SERVICE ALBUQUERQUE NM
600 AM MDT WED APR 16 2014

NOTE: "FAIR" MEANS FEW OR NO CLOUDS BELOW 12,000 FEET AGL WITH NO
       SIGNIFICANT WEATHER OR OBSTRUCTIONS TO VISION.

      THIS PRODUCT IS RELEASED AS TWO VERSIONS.  ONE VERSION NEAR
      THE TOP OF THE HOUR CONTAINING PRELIMINARY DATA FROM ALBUQUERQUE
      AND OTHER STATIONS.  A FINAL VERSION WITH ADDITIONAL DATA IS
      ISSUED ABOUT 10 MINUTES AFTER THE HOUR.

NMZ501-503-504-510>518-161300-
NORTHWEST PLATEAU/NORTHCENTRAL MOUNTAINS

CITY           SKY/WX    TMP DP  RH WIND       PRES   REMARKS
FARMINGTON     CLEAR     26   3  37 NE7       29.87S WCI  18
6HR MIN TEMP:  26; 6HR MAX TEMP:  37;

LOS ALAMOS     CLEAR     47   1  15 SW7       29.91S
SANTA FE       CLEAR     38   7  27 NW5       29.88F WCI  34
6HR MIN TEMP:  30; 6HR MAX TEMP:  48;

TAOS           PTCLDY    34   7  32 CALM      29.94R
ANGEL FIRE     FAIR      33   9  37 CALM      29.93S

$$
NMZ402-403-502-505>509-161300-
WESTCENTRAL MOUNTAINS/SOUTHWEST MOUNTAINS

CITY           SKY/WX    TMP DP  RH WIND       PRES   REMARKS
GALLUP         PTCLDY    27   1  32 NE5       29.93F WCI  22
6HR MIN TEMP:  24; 6HR MAX TEMP:  36;

GRANTS         CLEAR     28   3  33 CALM      29.96R
SILVER CITY    CLEAR     39   5  24 N14       29.94S WCI  31

$$
NMZ407-409-411-412-161300-
SOUTHERN DESERTS

CITY           SKY/WX    TMP DP  RH WIND       PRES   REMARKS
LORDSBURG      FAIR      37   5  25 CALM      29.89F
DEMING         CLEAR     37   6  27 W6        29.88S WCI  32
6HR MIN TEMP:  37; 6HR MAX TEMP:  51;

LAS CRUCES     CLEAR     37  -3  17 CALM      29.90S
HOLLOMAN AFB   PTCLDY    43   4  19 CALM      29.87F
ALAMOGORDO     CLEAR     41   7  24 CALM      29.88F
T OR C         CLEAR     44   7  21 W9        29.88F
6HR MIN TEMP:  43; 6HR MAX TEMP:  55;


$$
NMZ519>523-161300-
CENTRAL VALLEYS/CENTRAL HIGHLANDS

CITY           SKY/WX    TMP DP  RH WIND       PRES   REMARKS
ALBUQUERQUE    CLEAR     44   8  23 SE7       29.89S
6HR MIN TEMP:  43; 6HR MAX TEMP:  54;

DOUBLE EAGLE   CLEAR     30   5  34 CALM      29.90S
MORIARTY ARPT  FAIR      36   8  30 NE5       29.91R WCI  32
6HR MIN TEMP:  31; 6HR MAX TEMP:  44;

CLINES CORNERS CLEAR     34   9  35 W14       29.89S WCI  25
6HR MIN TEMP:  33; 6HR MAX TEMP:  42;

BELEN          FAIR      41   8  25 S8        29.88S
6HR MIN TEMP:  38; 6HR MAX TEMP:  52;

SOCORRO        FAIR      42   9  25 CALM      29.90R
6HR MIN TEMP:  42; 6HR MAX TEMP:  51;


$$
NMZ524>526-539-540-161300-
SOUTHCENTRAL MOUNTAINS

CITY           SKY/WX    TMP DP  RH WIND       PRES   REMARKS
RUIDOSO        CLEAR     45   0  15 CALM      29.98R

$$
NMZ527>531-161300-
NORTHEAST HIGHLANDS/NORTHEAST PLAINS

CITY           SKY/WX    TMP DP  RH WIND       PRES   REMARKS
LAS VEGAS      CLEAR     38   9  30 S9        29.87S WCI  31
6HR MIN TEMP:  33; 6HR MAX TEMP:  43;

RATON          MOCLDY    29  11  47 N7        29.82R WCI  22
6HR MIN TEMP:  29; 6HR MAX TEMP:  48;

CLAYTON        PTCLDY    46  13  26 W14       29.74S
6HR MIN TEMP:  44; 6HR MAX TEMP:  51;


$$
NMZ532>537-161300-
EASTCENTRAL PLAINS

CITY           SKY/WX    TMP DP  RH WIND       PRES   REMARKS
TUCUMCARI      PTCLDY    46   9  22 W15       29.77S
6HR MIN TEMP:  46; 6HR MAX TEMP:  57;

CANNON AFB     CLOUDY    44   7  22 W9        29.83S
6HR MIN TEMP:  41; 6HR MAX TEMP:  52;

CLOVIS AIRPORT CLOUDY    45  10  24 SW15      29.84F

$$
NMZ028-029-538-161300-
SOUTHEAST PLAINS

CITY           SKY/WX    TMP DP  RH WIND       PRES   REMARKS
ROSWELL        PTCLDY    43  10  26 S12       29.83F
6HR MIN TEMP:  43; 6HR MAX TEMP:  53;

ARTESIA        MOCLDY    41   9  26 S10       29.86S
CARLSBAD       MOCLDY    43   9  24 S5        29.86R
6HR MIN TEMP:  40; 6HR MAX TEMP:  53;

HOBBS          CLEAR     39  10  30 S8        29.88  WCI  34


$$



USA.gov is the U.S. government's official web portal to all federal, state and local government web resources and services.